Showing default

JILIN-01 GAOFEN 3D 31, 52448

Orbit data source: Space-Track

JILIN-01 GAOFEN 3D 31, 52448 is a payload satellite owned by Changguang WJ (CN) in SSO that was launched on Thu, 05 May 2022 UTC via a CHANG ZHENG 2D launch vehicle from the Taiyaun Space Center, China (TSC). Payload-class satellites include a variety of spacecraft equipped with specific instruments for various scientific and technological missions. These include communications satellites like Starlink; space stations such as the ISS; scientific satellites like the Hubble; Earth observation satellites from companies like Planet Labs, Umbra, and HawkEye 360; GPS; miniature CubeSats for education and research; and military/defense satellites.

Loading next visibility...
Identifier
52448, 2022-048F
Orbit
SSO
Country
Flag of CNCN / PRC
Related business
Manufacturer
Changguang WJ
Mission
Operational Commercial Imaging
Bus & Motor
JL-1, Unknown motor
Mass
42 kg wet, 42 kg dry
Launch date (UTC)
2022-05-05 (4 years ago)
Launch vehicle
CHANG ZHENG 2D
Launch site
Taiyaun Space Center, China (TSC)
Object type
Payload
Rocket body
Debris
Shape & HBR
Box + 2 Pan, 0.8 m
Radar Cross Section
2.000 m², Medium (>0.1 m² and < 1m²)

Expand to show TLE details & history
Last TLE update: 5 hours ago

TLE from 5 hours ago
0 JILIN-01 GAOFEN 3D 31
1 52448U 22048F   26170.14649793  .00170133  00000-0  82500-3 0  9991
2 52448  97.5689 285.6347 0002224 221.2821 138.8280 15.82014301229897
Epoch: 2026-06-19T03:30Z
TLE epoch observation values (Epoch: 2026-06-19T03:30:57.421Z)
Latitude
0.00008°
Longitude
-34.48422°
Altitude
329.037 km
Speed
7.71 km/s
True Right ascension
19h 02m 32s
True Declination
0° 00' 00"
Sunlit
Object was in full shadow at epoch
Visualization orbit readout
Latitude
Unknown
Longitude
Unknown
Altitude
Unknown
Speed
Unknown
Apparent Right ascension
Unknown
Apparent Declination
Unknown
Sunlit
N/A
Visualization observer readout
Local Sidereal Time
19:19:47
Azimuth
Unknown
Elevation
Unknown
Doppler factor
Unknown
Orbital elements
Apogee altitude
323.126 km
Perigee altitude
320.146 km
Semi-major axis
6,699.773 km
Eccentricity
0.00022
Inclination
97.5689°
RAAN
285.6347°
Arg. of periapsis
221.2821°
True anomaly
138.84477°
Mean anomaly
138.828°
Eccentric anomaly
138.83639°
Mean motion
3.95779 °/min
Orbital period
90.96 mins
BSTAR
0.000825
Loading maneuver chart data...
Computing Atmospheric mass density...
Loading historical data...
Loading historical data...
Loading historical data...
Loading historical data...
Loading historical data...
Loading historical data...
Loading historical data...

Documentation

Showing up to 5 results
|